NAYIF-1 (EO-88) (42017 NORAD) Tracking and Keplerian Element Data

This shows tracking and keplerian element data for the satellite.

Feedback or suggestion? Click here.




ElementValue
Catalog42017
NameNAYIF-1 (EO-88)
Epoch Orbit10103
Epoch Day345.16258463
Epoch Year2018
RAAN49.018
Inclination97.4284
Eccentricity0.0007852
Argument of Perigee112.6801
Mean Anonmoly247.5267
Mean Motion15.24968092
Decay Rate1.452E-05
L11 42017U 17008BX 18345.16258463 .00001452 00000-0 61096-4 0 9994
L22 42017 97.4284 49.0180 0007852 112.6801 247.5267 15.24968092101037

Live tracking and technical data element details for NAYIF-1 (EO-88) (NORAD 42017). NAYIF-1 (EO-88) can be tracked NOW for your location showing map with azimuth and elevation plus other details from your city location.

Track the satellite on the map from your city or location and see movement details for azimuth, elevation, latitude, longitude, range, height, and movement on the map or in text.







IsCatalogInMostPopularTable: catalog: 42017, numindb: 178
Update: records affected: 1



GetName: 42017 NAYIF-1 (EO-88)

Hit Count: updated at: Thu, 13 Dec 2018 03:57:27 GMT